User: anonymous   Login
Location: Canazei
(46.4667°N, 11.7667°E)
Time: 18:22:46
(UTC+00:00)
Language:

CZ-2D R/B - Orbit

View from above orbital plane
View from above orbital plane
View from above satellite
View from above satellite

Ground track
Ground track

The orbit data is extracted from the following two-line orbital elements,

1 37932U 11068C   21171.34668347 -.00000003  00000-0  17929-4 0  9999
2 37932  98.6906 107.4846 0038018 119.4162 351.8409 14.22074070497386
Epoch (UTC): 20 June 2021 08:19:13
Eccentricity: 0.0038018
inclination: 98.6906°
perigee height: 791 km
apogee height: 846 km
right ascension of ascending node: 107.4846°
argument of perigee: 119.4162°
revolutions per day: 14.22074070
mean anomaly at epoch: 351.8409°
orbit number at epoch: 49738

The dashed part of the orbit path shows where the satellite is in the earth's shadow,  

DLR